Wind_Speed
7 7 8 8 9 9 9 10 11 12 12 13 13 13 13 13 13 13 13 13 13 14 14 14 14 15 16 16 17 17 18 18 19 19 20 20 20 21 22 22 22 23
4 5 5 5 5 6 6 8 9 9 10 10 11 11 11 11 11 12 12 12 12 12 12 12 13 13 14 15 16 17 17 18 19 19 20 20 20 21 21 22 22 23
2 3 3 3 3 3 4 5 6 7 8 9 9 10 10 10 10 11 11 11 11 11 11 12 13 13 14 14 15 16 17 18 19 19 20 20 20 21 21 21 22 23
3 3 4 4 4 4 5 6 6 7 8 9 10 11 12 12 12 12 12 12 12 11 12 12 13 14 14 15 15 16 17 18 19 19 20 21 21 22 21 21 21 22
5 6 6 7 7 8 9 9 9 9 10 10 11 12 13 14 14 15 15 15 15 15 16 16 17 18 18 19 19 19 20 20 21 22 22 22 23 24 24 23 23 23
7 8 9 9 10 11 12 12 13 13 12 12 13 14 14 14 15 16 17 18 18 18 18 19 20 20 21 22 23 22 22 23 23 24 24 24 24 25 25 26 25 25
10 11 11 12 12 13 14 15 15 15 15 15 15 15 15 15 16 17 18 19 19 19 19 20 20 20 21 22 23 23 24 24 24 25 24 24 24 25 25 25 26 26
13 14 14 14 15 15 16 16 17 17 17 17 17 17 17 17 17 18 19 20 21 21 21 21 22 22 23 23 24 24 24 25 25 26 26 26 27 27 26 27 27 28
16 16 17 17 18 18 18 18 19 19 19 19 19 19 19 18 18 19 20 21 22 23 23 24 24 25 25 26 26 26 26 26 26 27 28 29 30 30 30 30 31 32
19 19 20 20 21 21 21 21 21 21 20 20 20 20 20 20 20 21 22 23 23 24 25 26 26 27 27 28 28 27 27 28 28 28 29 31 32 33 33 34 35 35
21 22 22 22 23 23 23 23 22 22 22 22 22 22 22 23 23 23 24 25 25 26 26 27 28 28 29 30 29 29 29 30 30 31 32 33 34 35 36 37 37 38
23 23 24 24 24 24 24 24 24 23 23 24 24 24 25 25 25 24 24 26 28 29 29 30 30 30 31 31 32 32 32 33 34 35 35 36 37 37 38 39 40 41
24 24 25 25 25 25 25 25 25 25 25 25 26 26 27 27 27 26 26 28 30 31 32 33 33 33 33 34 34 35 35 36 37 38 39 40 40 40 40 41 43 44
24 25 25 25 25 26 26 26 27 27 27 27 28 28 29 29 29 30 30 32 33 34 34 34 35 35 36 36 36 37 38 39 40 41 42 42 42 42 42 43 45 47
25 25 26 26 26 27 28 28 28 29 29 29 29 30 31 32 32 33 34 36 37 37 37 38 38 39 39 39 39 40 41 41 42 43 43 43 43 43 44 46 48 49
26 26 27 27 28 29 29 30 30 31 31 32 32 33 34 35 35 36 37 38 38 39 39 39 40 40 41 41 42 42 43 43 43 43 43 44 45 45 47 49 51 53
26 27 28 29 29 30 31 31 32 33 34 34 35 36 36 36 36 36 36 37 37 37 37 38 39 40 41 41 42 43 43 43 43 44 44 45 47 49 51 53 54 56
27 28 29 29 30 30 31 32 33 34 35 35 35 35 35 35 35 34 33 34 35 35 36 37 38 40 41 42 43 44 45 45 45 45 46 48 50 52 54 56 57 59
28 29 29 30 30 31 31 32 33 34 34 34 34 34 34 34 32 31 32 33 34 35 35 37 38 39 41 43 45 47 48 48 48 49 50 52 54 56 58 59 61 63
28 29 29 30 31 32 32 33 33 33 33 33 33 33 34 33 32 32 32 34 35 36 37 38 39 40 42 44 46 48 50 51 52 53 55 56 58 60 62 64 65 66
29 29 30 30 31 32 33 33 33 33 33 33 33 33 34 33 33 33 34 35 36 38 39 40 42 43 45 47 49 51 53 54 56 58 60 61 63 64 66 66 67 68
30 30 30 30 31 32 33 34 35 36 36 36 35 34 34 34 34 34 35 37 38 40 42 43 45 47 49 51 53 54 55 56 58 60 62 64 65 66 67 67 68 68
31 32 32 33 33 34 35 36 36 37 37 36 35 35 34 35 36 37 38 40 41 43 45 47 49 50 52 53 55 57 57 59 60 61 62 64 65 65 66 67 68 69
33 34 35 36 37 37 37 36 35 35 36 36 36 35 35 36 37 40 42 44 45 47 49 51 53 54 55 56 57 58 60 61 62 62 63 64 65 65 66 67 68 69
31 32 33 34 35 36 35 34 33 34 35 37 37 36 37 39 42 45 49 51 52 54 56 58 59 59 60 60 60 61 62 63 64 64 64 65 65 65 66 67 69 71
30 31 31 32 32 33 33 34 36 39 40 43 44 43 45 51 54 56 58 59 59 61 63 64 65 66 66 65 65 65 65 66 67 66 66 66 66 66 67 69 71 74
Wind_Direction
67 64 61 57 51 45 39 34 31 31 32 32 33 33 36 37 37 36 37 37 38 39 39 37 34 29 25 21 18 15 15 15 15 15 15 15 15 15 13 12 12 12
57 54 51 48 42 34 27 23 22 21 21 21 20 19 20 22 23 21 19 19 20 19 19 18 17 15 11 8 6 4 3 2 2 3 3 4 5 5 4 2 1 2
26 22 21 20 16 8 3 1 2 4 7 8 6 2 0 2 5 3 359 358 359 359 358 359 358 357 356 355 354 353 352 352 351 351 352 353 354 355 355 353 352 352
317 321 322 323 322 318 317 321 327 336 344 347 348 347 346 347 347 345 340 337 337 338 339 340 340 340 339 339 340 340 341 340 340 341 341 342 343 344 345 345 344 344
299 303 305 308 309 308 308 310 313 318 324 329 331 332 333 336 334 331 329 328 328 330 331 333 334 333 332 332 332 332 332 332 331 332 333 334 334 334 336 337 337 336
292 296 299 303 306 308 309 310 311 312 315 318 321 322 323 325 324 323 323 323 323 324 325 327 328 327 327 326 326 326 325 324 323 323 324 325 326 327 328 329 330 330
292 294 297 300 303 305 306 307 307 308 310 312 314 315 317 317 317 318 318 318 317 316 315 314 315 316 316 316 316 315 315 313 312 312 314 315 317 318 320 321 322 323
289 292 294 296 297 299 300 301 302 303 305 307 308 309 311 312 313 314 315 314 313 311 309 307 306 306 306 307 308 309 309 309 307 307 309 311 313 315 316 317 318 319
287 289 292 293 293 294 295 297 299 301 302 302 303 305 306 307 309 311 312 311 309 307 305 304 303 302 302 303 305 308 309 309 308 308 309 311 313 315 317 318 318 319
285 287 289 290 291 292 293 295 297 299 298 299 299 300 301 301 302 304 306 306 305 303 302 302 302 302 302 302 304 307 308 309 309 309 309 310 312 315 317 318 318 318
284 286 287 289 290 292 293 295 295 296 295 296 296 298 299 299 299 299 301 303 303 302 301 301 301 301 301 301 303 305 306 308 308 308 308 310 312 314 315 315 315 315
284 285 286 288 290 292 293 293 293 293 294 295 296 298 299 299 297 296 298 302 303 303 302 302 302 302 302 302 302 303 305 307 308 308 308 309 310 311 312 313 313 312
283 284 286 288 290 290 291 291 291 292 294 295 296 297 297 297 296 295 296 299 300 300 300 301 302 301 302 302 303 303 304 306 308 308 309 308 308 308 309 311 311 310
282 284 286 288 288 289 289 289 289 290 292 293 295 296 298 299 299 297 297 298 298 298 299 300 300 300 301 302 303 303 304 305 306 307 308 308 308 309 309 309 309 309
282 284 285 286 286 287 288 288 288 289 290 292 295 297 299 299 299 298 297 297 297 298 299 300 301 301 302 303 303 303 303 303 304 305 307 308 309 309 309 308 308 308
282 284 285 285 285 286 287 287 288 289 291 293 296 297 297 297 297 297 297 298 298 300 301 302 304 304 305 305 305 305 305 305 306 307 308 309 309 309 309 308 308 308
283 283 283 284 284 285 286 288 289 291 293 294 294 294 294 295 297 298 299 300 301 303 306 307 308 308 308 307 306 306 305 305 306 307 308 308 307 307 307 308 308 308
283 283 284 285 286 287 289 290 292 293 293 293 294 295 296 297 298 299 300 302 305 308 310 311 311 311 310 308 307 305 305 305 305 305 305 305 305 305 306 307 307 307
284 286 288 289 290 291 291 292 293 293 293 294 295 295 295 295 297 299 299 300 303 307 309 310 311 310 309 307 306 304 304 304 303 303 303 303 304 305 307 307 308 308
287 289 291 291 291 290 290 291 291 292 292 292 292 292 293 294 297 298 298 297 299 301 304 306 308 308 307 306 305 304 304 304 303 303 304 305 306 307 307 308 308 308
288 289 289 289 288 288 288 288 289 289 289 289 290 293 295 296 298 299 299 299 299 300 302 305 306 307 306 306 306 306 306 306 306 306 306 306 306 307 307 307 307 307
287 286 286 285 286 286 286 286 286 287 287 289 291 294 296 299 300 300 301 302 303 304 306 307 307 307 307 307 307 307 307 307 307 307 306 306 306 306 306 306 306 307
290 288 287 286 286 287 288 289 288 288 289 291 294 296 299 301 302 304 305 306 308 310 311 311 309 308 307 307 307 307 308 308 307 307 306 306 306 305 306 306 306 305
293 291 289 287 286 288 291 292 291 291 292 294 296 297 299 301 304 307 309 309 311 312 313 312 311 309 308 308 308 309 309 309 309 308 307 307 306 306 306 306 305 305
296 296 295 293 292 294 295 294 292 293 295 295 294 295 298 301 305 308 309 309 311 312 312 313 313 312 311 310 310 310 310 310 309 309 308 307 307 306 306 305 305 304
300 303 305 305 304 303 300 295 293 294 296 296 294 294 297 301 305 308 309 309 310 310 311 313 313 313 312 311 311 311 311 311 310 309 308 307 307 306 306 305 305 305
Height
10718 10718 10717 10716 10715 10715 10714 10713 10712 10712 10711 10710 10709 10708 10707 10706 10705 10704 10703 10702 10701 10700 10699 10698 10697 10696 10696 10695 10694 10693 10692 10690 10689 10688 10687 10685 10684 10683 10681 10680 10679 10678
10719 10718 10717 10717 10716 10715 10715 10714 10713 10712 10711 10710 10709 10708 10707 10706 10705 10704 10703 10702 10701 10700 10699 10698 10697 10696 10695 10694 10693 10692 10691 10690 10689 10688 10686 10685 10684 10682 10681 10679 10678 10677
10719 10718 10718 10717 10716 10716 10715 10714 10714 10713 10712 10711 10709 10708 10707 10706 10705 10704 10703 10702 10701 10700 10699 10697 10696 10695 10694 10693 10692 10691 10690 10689 10688 10687 10686 10684 10683 10682 10680 10679 10677 10675
10718 10718 10717 10717 10716 10715 10715 10714 10713 10712 10711 10710 10709 10708 10706 10705 10704 10703 10702 10701 10700 10699 10698 10697 10695 10694 10693 10692 10691 10690 10689 10688 10687 10686 10684 10683 10682 10681 10679 10678 10676 10674
10717 10717 10716 10716 10715 10714 10714 10713 10712 10711 10710 10709 10708 10706 10705 10704 10703 10702 10701 10700 10698 10697 10696 10694 10693 10692 10691 10690 10689 10688 10687 10686 10685 10684 10682 10681 10680 10678 10677 10676 10674 10672
10716 10716 10715 10714 10714 10713 10712 10711 10710 10709 10708 10707 10706 10705 10704 10703 10701 10700 10699 10698 10696 10695 10694 10692 10691 10689 10688 10687 10686 10685 10685 10684 10682 10681 10680 10679 10677 10676 10674 10673 10671 10670
10715 10715 10714 10713 10712 10711 10710 10709 10708 10707 10706 10705 10705 10703 10702 10701 10700 10698 10697 10696 10695 10693 10692 10691 10689 10688 10687 10686 10685 10684 10683 10682 10681 10679 10678 10677 10675 10674 10672 10670 10669 10667
10713 10713 10712 10711 10710 10709 10708 10707 10706 10705 10704 10703 10702 10701 10700 10699 10698 10697 10695 10694 10693 10691 10690 10689 10688 10687 10685 10684 10683 10682 10681 10680 10678 10677 10675 10674 10672 10671 10669 10667 10665 10663
10711 10710 10710 10709 10708 10707 10706 10705 10704 10703 10702 10701 10700 10699 10698 10697 10696 10694 10693 10692 10691 10689 10688 10686 10685 10684 10683 10681 10680 10679 10678 10676 10675 10674 10672 10670 10668 10667 10665 10663 10661 10659
10709 10708 10707 10706 10705 10704 10703 10703 10702 10700 10699 10698 10697 10696 10695 10694 10693 10692 10691 10690 10688 10687 10685 10683 10682 10681 10679 10678 10677 10675 10674 10672 10671 10670 10668 10666 10664 10662 10660 10658 10656 10654
10706 10705 10704 10703 10702 10702 10700 10699 10698 10697 10696 10695 10694 10693 10692 10691 10690 10689 10688 10686 10685 10683 10682 10680 10679 10677 10676 10675 10673 10672 10670 10668 10667 10665 10664 10662 10660 10658 10656 10654 10652 10649
10703 10702 10701 10700 10699 10698 10697 10696 10695 10694 10693 10692 10690 10689 10688 10687 10686 10685 10684 10683 10681 10679 10678 10676 10675 10674 10672 10671 10669 10668 10666 10664 10662 10660 10659 10657 10655 10653 10651 10649 10647 10645
10700 10699 10698 10697 10696 10695 10694 10693 10691 10690 10689 10688 10687 10686 10685 10684 10683 10682 10680 10679 10677 10676 10674 10673 10672 10670 10669 10667 10666 10664 10662 10660 10658 10656 10654 10652 10650 10648 10646 10644 10642 10640
10696 10695 10694 10693 10692 10691 10690 10689 10688 10687 10686 10685 10683 10682 10681 10680 10679 10678 10677 10675 10674 10672 10671 10670 10668 10666 10665 10663 10661 10660 10658 10656 10654 10652 10649 10647 10645 10643 10641 10639 10636 10634
10693 10692 10691 10690 10689 10688 10686 10685 10684 10683 10682 10681 10680 10679 10678 10677 10676 10674 10673 10671 10669 10668 10667 10665 10664 10662 10660 10658 10656 10654 10652 10650 10649 10646 10644 10642 10640 10638 10636 10633 10631 10629
10689 10688 10687 10686 10685 10684 10683 10682 10680 10679 10678 10677 10676 10675 10674 10673 10672 10670 10669 10667 10665 10663 10662 10660 10659 10657 10655 10653 10651 10649 10647 10645 10643 10641 10639 10637 10634 10632 10630 10628 10625 10623
10685 10684 10683 10683 10681 10680 10679 10678 10676 10675 10674 10673 10672 10671 10670 10669 10668 10666 10664 10662 10660 10659 10657 10655 10654 10652 10650 10648 10646 10643 10641 10639 10637 10635 10633 10631 10629 10627 10624 10622 10619 10616
10681 10681 10680 10679 10677 10676 10675 10674 10672 10671 10670 10669 10668 10667 10666 10665 10663 10662 10660 10658 10656 10654 10653 10651 10649 10648 10646 10644 10641 10639 10637 10635 10633 10630 10628 10626 10623 10621 10618 10615 10613 10610
10678 10677 10676 10674 10673 10672 10671 10670 10669 10667 10666 10665 10664 10663 10661 10660 10659 10657 10655 10653 10651 10650 10648 10647 10646 10644 10642 10639 10637 10635 10633 10631 10628 10625 10623 10620 10617 10614 10611 10608 10605 10602
10674 10672 10671 10670 10669 10668 10667 10666 10665 10663 10662 10661 10660 10658 10657 10655 10654 10653 10651 10649 10647 10645 10644 10643 10641 10639 10637 10635 10632 10630 10628 10626 10623 10620 10617 10613 10610 10607 10604 10601 10598 10594
10669 10669 10667 10666 10665 10664 10663 10662 10660 10659 10657 10656 10655 10654 10652 10651 10649 10648 10646 10644 10643 10641 10640 10638 10636 10634 10632 10629 10627 10625 10623 10620 10617 10614 10610 10607 10603 10600 10597 10593 10590 10586
10666 10665 10664 10663 10661 10660 10658 10657 10655 10654 10653 10651 10650 10649 10647 10645 10644 10643 10641 10639 10638 10636 10634 10633 10631 10629 10626 10623 10620 10618 10616 10614 10611 10607 10604 10600 10597 10593 10589 10585 10582 10578
10662 10661 10659 10658 10657 10655 10653 10652 10651 10649 10647 10646 10645 10643 10641 10640 10638 10636 10635 10633 10631 10630 10628 10627 10625 10622 10620 10616 10613 10611 10609 10607 10604 10600 10597 10593 10590 10586 10582 10578 10574 10570
10657 10656 10655 10653 10652 10650 10649 10647 10646 10644 10643 10641 10639 10637 10636 10634 10632 10630 10628 10626 10624 10623 10621 10619 10617 10615 10612 10609 10606 10603 10601 10598 10596 10593 10590 10586 10583 10579 10575 10570 10566 10562
10652 10651 10649 10648 10646 10645 10644 10642 10641 10639 10638 10636 10634 10632 10630 10627 10626 10625 10623 10620 10618 10615 10613 10611 10608 10606 10603 10600 10598 10595 10592 10590 10587 10585 10582 10579 10575 10572 10568 10563 10559 10554
10647 10645 10644 10642 10641 10640 10639 10638 10636 10634 10633 10630 10628 10627 10624 10621 10619 10617 10615 10612 10610 10608 10605 10602 10599 10596 10594 10591 10589 10587 10584 10581 10578 10575 10572 10569 10566 10563 10559 10556 10552 10547